Wind_Speed
16 16 16 16 18 19 19 20 21 21 21 20 20 18 18 18 17 17 17 17 17 17 18 18 18 17 16 16 16 15 14 12 10 8 7 7 9 8 9 9 8 8 8 10 9 8 7 7 7 6 6 6 8 9 12 15 14 10 6 8 10 10 9 9 11 9 6 9 11 14 19 17 12 14 14 12 12 12 14 16 15 14 14 17 19 18 16 13
16 15 15 16 17 19 19 21 21 22 22 21 20 19 19 19 19 19 18 18 18 18 18 18 18 17 16 16 16 15 13 12 10 5 5 7 7 5 3 2 2 4 5 6 7 6 6 6 5 5 5 6 6 7 10 11 14 10 3 7 10 8 5 3 6 6 2 7 12 16 22 20 16 13 10 10 10 12 13 9 10 13 15 17 18 17 16 15
16 15 15 15 17 18 19 20 21 22 23 22 21 19 19 19 19 20 20 19 18 18 17 16 16 16 16 16 15 14 13 11 4 5 5 6 7 5 3 2 1 3 4 4 4 4 4 4 3 4 5 5 5 7 8 8 11 9 4 8 7 1 2 4 3 3 5 3 5 10 16 16 14 12 10 11 12 12 13 8 7 11 15 19 20 18 17 16
16 16 16 15 16 18 18 19 20 21 23 23 21 20 19 19 19 20 21 21 19 17 16 15 14 14 15 16 15 13 13 8 3 5 3 4 5 4 3 2 3 4 5 5 5 4 3 3 2 2 4 3 3 5 6 6 6 4 5 6 0 3 1 4 7 6 7 6 3 3 5 7 5 9 13 13 14 13 12 11 11 14 17 22 24 21 19 19
17 16 15 15 15 17 17 18 19 19 21 22 21 20 19 19 20 21 21 20 19 17 16 15 14 15 16 15 15 12 10 4 5 6 4 2 3 2 2 3 4 6 6 6 6 4 4 3 2 1 2 1 2 3 2 4 3 3 3 1 5 4 2 2 7 6 7 7 5 5 2 3 3 8 12 12 14 12 10 13 17 19 19 22 24 21 22 23
17 17 15 15 15 16 17 17 18 18 20 21 20 18 19 19 21 21 20 19 18 16 16 16 15 17 17 15 14 9 6 2 5 4 2 2 2 1 3 4 5 6 6 6 5 4 3 2 0 2 1 1 2 3 1 1 2 4 1 4 6 4 4 6 7 7 7 6 4 4 5 6 5 7 8 10 16 13 9 12 17 22 23 24 24 23 26 27
18 17 16 16 16 16 17 17 17 17 20 22 20 18 18 19 20 19 19 19 18 16 15 16 16 17 17 15 13 9 6 4 5 6 7 6 4 3 4 5 6 5 4 4 4 3 2 2 2 3 1 1 1 1 2 5 3 3 1 5 7 6 5 9 11 10 9 7 6 6 8 5 4 7 7 12 19 17 13 13 14 18 23 25 27 27 28 28
18 18 17 17 18 18 18 18 17 18 21 23 22 20 20 20 20 19 17 17 18 17 17 17 16 17 18 17 16 11 6 3 4 5 4 4 5 4 5 5 5 3 4 6 7 5 4 4 4 4 0 1 1 0 3 4 1 1 1 5 7 7 8 11 13 13 11 9 7 8 8 5 8 9 11 20 24 19 17 17 14 13 18 22 27 29 27 27
19 19 19 19 19 19 19 18 17 18 21 23 23 22 22 22 22 21 19 17 16 16 17 18 17 17 17 18 17 9 3 2 1 2 2 4 5 4 5 5 4 4 7 9 9 8 5 4 4 3 0 1 1 1 3 1 1 2 3 5 6 7 9 10 10 10 11 10 7 8 9 9 12 11 13 21 24 22 20 19 17 14 15 20 27 30 27 28
20 20 20 20 20 20 19 17 16 17 19 22 21 21 21 21 22 23 22 19 17 16 17 17 16 16 16 18 13 3 3 1 1 1 3 4 5 5 6 6 6 7 9 9 10 9 7 4 3 2 1 1 1 1 1 1 1 3 4 5 5 6 6 6 7 8 11 11 10 10 9 13 13 10 9 2 4 14 17 17 17 14 15 18 25 30 30 29
21 21 21 21 21 21 19 17 16 16 19 21 20 19 20 20 21 22 23 21 18 16 16 15 15 16 17 15 7 1 4 2 1 2 4 6 7 9 9 10 10 9 10 10 10 9 7 5 3 2 1 1 0 2 1 1 3 4 5 6 3 3 4 5 7 10 9 8 9 6 8 14 12 13 10 4 0 8 10 12 11 10 13 16 22 29 31 31
22 21 21 21 21 21 19 17 17 17 18 20 19 19 20 20 20 22 21 18 16 15 15 15 15 15 14 10 5 3 4 3 2 3 4 6 7 9 8 8 9 9 10 10 9 8 6 5 4 3 2 1 2 2 1 2 5 3 3 5 3 1 4 5 8 11 9 6 6 2 8 12 14 20 10 2 11 13 13 16 12 11 12 14 19 26 30 32
22 23 22 21 20 20 19 18 17 17 18 19 18 19 20 19 20 20 17 15 15 16 14 14 12 11 9 6 8 6 4 3 3 3 4 4 5 6 4 3 4 6 8 8 8 7 6 4 4 4 3 2 2 2 3 5 5 3 2 3 4 3 1 1 2 7 7 8 8 6 8 11 17 22 6 2 13 13 17 19 15 15 13 13 17 23 29 31
24 24 23 21 19 18 18 17 17 17 18 18 18 18 19 18 19 17 14 15 15 14 12 12 10 9 9 7 9 9 6 4 3 2 3 2 2 3 4 3 2 2 4 5 6 6 5 4 4 4 4 4 3 5 5 3 2 2 3 2 3 4 2 2 3 2 5 7 10 10 9 10 13 11 1 5 14 11 15 17 15 15 12 13 16 20 27 30
25 25 24 21 18 17 16 16 17 17 17 18 18 18 17 16 16 13 13 14 13 13 14 13 11 9 6 6 8 8 4 3 3 3 3 3 2 2 2 2 2 1 2 3 5 5 4 4 3 3 3 2 3 4 3 2 1 1 3 3 1 2 2 2 3 1 3 5 8 10 9 7 7 4 2 8 16 14 16 16 15 15 13 14 15 19 25 29
26 25 23 21 18 17 16 16 16 16 18 19 19 18 16 14 12 10 13 13 9 13 16 12 11 10 5 4 8 11 7 6 7 6 7 8 6 5 4 3 2 1 1 2 4 5 5 4 2 2 2 2 1 2 3 3 1 1 2 3 1 3 2 2 1 1 2 3 5 10 9 5 2 6 8 8 10 13 15 14 15 16 17 18 17 19 22 26
25 23 21 20 19 18 17 16 16 17 19 19 19 16 14 11 8 9 13 12 7 10 15 13 9 7 6 7 7 12 13 13 15 10 9 10 10 9 8 6 4 3 2 4 5 5 5 2 1 2 0 0 1 1 3 5 3 1 1 2 1 4 4 1 1 1 5 5 5 9 11 9 7 10 14 14 12 12 14 13 12 13 15 17 18 20 22 26
23 20 20 20 20 19 17 17 18 21 21 19 18 14 11 8 7 10 13 11 7 6 11 14 10 4 4 10 8 12 16 18 19 15 12 10 9 9 8 7 6 6 4 4 4 3 4 2 0 2 0 0 1 2 4 3 1 1 0 1 1 2 4 3 2 2 8 8 8 10 12 11 10 11 12 14 15 16 17 14 11 10 13 15 15 17 21 26
22 19 18 19 20 20 18 18 21 24 22 20 19 13 8 7 6 9 12 12 10 6 4 10 11 2 3 13 12 14 18 19 19 16 14 11 9 8 6 7 6 5 3 2 1 1 2 2 1 2 2 4 5 5 6 2 3 1 0 2 3 4 6 5 5 5 7 10 11 13 14 11 12 11 10 13 16 18 20 18 14 10 11 14 15 16 20 24
21 18 17 19 20 20 17 18 22 25 22 21 21 13 8 9 4 4 10 11 11 8 3 5 7 1 6 14 13 16 20 19 19 16 15 11 9 8 5 6 5 2 1 2 2 2 0 3 4 4 5 5 6 6 7 4 1 3 4 5 6 7 8 5 6 7 5 8 11 13 14 13 14 13 10 15 19 20 21 20 19 15 11 12 14 16 19 23
21 17 16 18 20 20 17 18 23 24 20 20 22 14 11 11 5 4 11 8 8 9 5 5 6 4 11 15 14 19 20 19 19 15 15 15 11 7 4 3 3 1 1 1 2 0 2 5 4 4 6 6 5 6 6 6 6 6 6 7 7 7 8 6 6 8 6 7 10 12 15 15 15 12 11 15 17 19 21 19 21 20 15 14 14 16 19 22
20 18 15 16 19 20 16 17 22 21 16 17 21 17 13 10 6 5 9 5 6 9 6 8 8 7 14 14 13 21 19 15 16 15 17 18 11 6 5 3 2 2 1 0 3 3 4 6 5 4 5 5 4 4 5 7 8 7 6 6 7 6 6 6 6 7 6 6 8 11 13 14 13 11 11 13 15 20 23 21 21 22 19 18 18 17 16 19
20 18 15 14 17 19 16 16 21 19 15 16 19 17 11 8 5 5 7 6 7 7 7 10 8 8 12 11 13 20 16 9 10 14 19 16 10 7 6 4 3 2 2 3 4 5 5 3 2 3 5 5 5 4 5 6 5 6 6 6 8 6 4 4 3 4 6 7 9 12 12 13 12 10 10 14 18 22 25 24 25 26 25 25 24 21 18 18
19 18 15 12 14 18 15 14 20 18 14 16 17 14 11 8 5 5 5 4 4 5 8 8 7 8 10 10 15 19 14 7 8 14 14 12 12 9 4 3 3 3 2 4 6 9 9 4 1 3 5 6 7 6 6 6 5 7 9 9 10 7 6 7 5 6 8 9 11 11 10 10 9 8 8 11 16 20 23 25 25 26 28 28 27 28 27 24
19 18 16 12 11 16 15 13 18 18 14 15 15 12 11 9 6 6 5 2 2 5 8 6 5 8 9 11 19 21 12 5 10 12 8 11 13 7 3 3 3 3 3 3 5 8 10 7 6 6 6 8 8 8 8 7 6 7 9 12 13 9 8 10 9 6 6 7 7 5 7 7 4 5 6 6 8 12 15 18 22 24 26 25 25 29 31 30
18 17 16 12 10 13 13 11 16 17 12 13 14 11 10 9 7 5 3 0 0 4 7 5 4 7 9 13 23 20 5 2 13 9 2 11 12 4 4 2 1 3 4 4 4 5 4 3 7 8 9 10 10 10 8 8 7 7 5 8 12 11 10 12 10 6 5 6 1 2 6 7 5 6 7 6 10 13 12 14 19 23 23 22 21 24 29 31
18 16 15 12 9 11 12 11 14 16 13 12 13 10 9 8 6 3 1 1 1 3 5 3 4 8 10 17 23 13 1 7 14 4 2 13 11 3 4 2 1 2 1 3 4 2 0 2 5 7 9 9 9 8 6 9 8 5 5 6 8 10 10 11 10 7 6 6 3 4 8 8 9 8 5 6 13 16 14 14 18 20 21 20 20 22 26 28
18 16 14 11 8 10 12 12 14 15 14 14 13 11 8 4 3 2 1 2 2 4 3 3 6 10 15 22 19 7 3 9 6 1 7 13 9 4 3 3 3 3 0 2 5 1 1 4 5 4 7 8 7 6 6 10 9 5 5 5 6 7 9 9 8 6 6 6 7 8 8 7 10 6 2 4 12 15 16 17 17 19 20 18 17 20 21 22
18 16 13 8 7 9 11 12 14 15 16 15 14 12 7 1 1 1 1 1 2 3 3 5 7 10 18 23 14 5 5 5 1 6 12 10 7 5 3 3 2 3 2 4 8 8 4 5 4 3 6 6 6 5 6 10 9 4 3 5 5 5 7 7 6 6 6 6 8 9 8 7 9 6 3 5 10 13 13 14 14 17 23 22 18 18 19 22
18 15 10 5 6 9 10 12 14 16 16 16 15 11 3 2 2 1 2 1 1 3 5 6 7 10 16 15 6 4 6 3 4 9 9 7 7 5 3 4 2 2 3 4 9 12 10 10 7 6 9 8 6 6 7 11 10 4 2 4 4 4 5 5 5 5 5 6 11 14 11 8 9 7 4 5 8 12 11 12 14 15 22 27 24 21 23 26
16 12 7 5 8 10 11 12 14 16 16 16 15 7 2 2 1 2 2 1 2 4 5 4 6 9 12 8 3 5 5 3 5 7 6 5 4 3 2 2 1 2 3 3 6 8 9 9 5 5 10 9 7 7 7 9 9 5 4 4 4 4 4 4 4 4 6 8 10 12 12 11 10 7 5 7 11 15 14 14 17 16 19 25 24 21 23 26
14 9 5 6 9 11 11 12 13 15 16 16 12 3 3 1 2 1 1 3 2 2 4 3 4 7 9 4 2 5 5 3 3 4 5 5 4 3 2 1 1 3 2 1 3 5 6 5 2 3 6 7 7 7 7 6 6 6 5 4 4 5 5 4 5 5 7 9 6 6 9 10 10 10 11 13 15 18 17 18 20 20 21 25 25 21 21 23
13 7 4 6 9 11 11 12 13 13 14 15 8 2 3 2 2 1 2 3 1 1 3 3 4 6 8 5 3 4 3 2 3 4 3 2 3 3 2 2 1 2 2 2 4 6 4 1 1 2 2 6 8 6 6 6 5 7 7 5 5 7 6 6 7 5 7 8 5 5 7 7 8 9 14 18 18 20 23 24 27 26 27 30 32 28 24 25
13 6 3 7 10 11 11 12 13 13 13 12 4 2 3 2 0 0 1 2 2 2 2 3 7 7 3 2 3 4 2 1 3 6 5 2 2 3 2 2 3 2 1 2 3 3 4 3 2 2 1 5 10 10 10 7 5 7 6 5 7 8 7 7 6 6 7 6 5 6 4 5 6 4 7 13 17 21 24 28 30 31 32 33 35 33 27 27
12 5 3 8 11 11 11 12 13 12 12 9 2 2 2 0 1 1 1 2 2 4 5 4 4 4 1 1 2 1 1 1 4 6 4 2 3 4 2 1 3 3 1 2 2 1 5 6 3 2 0 4 9 10 10 8 7 6 5 5 8 7 6 6 6 5 4 6 7 6 4 5 7 8 9 13 16 18 22 27 29 30 31 31 30 30 27 28
11 5 4 9 12 11 11 12 11 11 11 6 3 2 1 1 1 1 1 2 2 3 7 5 1 2 3 2 1 1 1 2 4 5 2 3 6 3 2 1 4 6 2 2 2 2 5 5 2 2 4 7 10 7 7 9 6 3 5 8 6 3 3 7 6 1 1 7 8 7 8 8 8 11 13 15 16 16 18 22 26 28 29 26 23 25 27 31
12 6 4 9 13 12 11 11 11 10 8 4 3 2 1 1 1 2 1 3 3 1 3 3 2 2 2 3 3 3 2 2 2 4 4 5 4 3 3 2 5 7 4 2 2 1 4 7 5 7 9 6 7 7 8 11 8 3 4 5 2 3 3 6 6 3 5 9 7 6 11 11 8 9 8 9 12 12 11 13 17 22 22 18 18 22 29 34
14 6 4 9 14 13 11 11 11 8 5 4 2 1 0 1 1 2 3 4 2 1 3 0 1 1 2 4 4 4 7 5 3 5 6 4 2 3 2 2 5 7 6 6 3 1 2 7 5 7 7 1 3 4 6 9 12 8 4 1 1 3 6 6 5 5 7 8 7 7 10 10 10 10 8 11 13 11 10 12 15 16 14 13 16 19 23 26
14 7 3 9 15 14 11 9 8 6 4 3 1 0 0 2 4 5 7 5 1 1 1 2 1 1 1 3 5 5 6 6 7 8 4 2 1 2 3 2 3 6 6 8 4 1 3 5 4 4 4 1 1 3 3 5 10 8 5 4 3 3 4 6 4 4 6 7 7 8 9 9 9 9 8 11 11 8 8 11 13 15 15 14 14 17 20 21
13 6 2 8 14 13 10 7 7 7 4 2 0 1 0 2 6 7 7 4 2 1 1 2 2 1 2 2 5 4 4 6 9 8 3 2 3 5 4 3 3 4 6 8 6 2 3 5 5 2 3 1 3 3 3 5 6 7 7 7 6 4 3 5 4 3 5 7 7 7 8 10 6 4 4 6 8 8 9 11 12 13 18 21 22 25 27 27
14 5 2 10 14 12 9 6 8 6 2 1 0 1 1 3 5 8 8 4 2 2 2 2 2 2 2 3 4 4 5 8 7 6 5 4 4 3 1 4 3 1 3 6 6 3 3 4 6 6 4 4 6 4 5 6 6 7 8 8 8 7 5 5 5 4 4 6 8 7 9 12 5 4 2 5 7 8 9 12 14 14 19 24 26 28 28 28
13 4 4 11 14 12 8 4 4 2 1 1 3 3 4 5 4 6 7 5 2 1 2 2 2 3 3 3 3 4 7 7 6 5 5 5 6 5 4 5 6 4 3 4 4 6 5 3 6 10 9 8 8 8 9 10 8 5 6 7 7 7 7 7 6 4 4 7 7 6 9 12 3 6 4 5 5 9 13 17 17 15 19 24 26 29 30 28
13 5 5 11 13 12 7 3 1 1 1 3 4 3 4 4 3 5 6 4 2 2 2 1 1 2 2 1 2 6 7 6 7 6 5 6 7 9 10 12 11 7 4 3 3 6 5 2 6 9 8 5 5 6 6 6 7 6 5 6 6 6 7 7 5 3 5 7 7 5 9 11 3 5 5 6 6 11 16 20 21 18 21 24 24 28 31 30
12 5 5 10 13 11 5 2 2 2 2 4 3 3 4 3 4 5 5 3 2 1 1 1 1 1 1 1 3 5 5 4 5 6 6 7 5 5 10 14 12 7 5 4 2 4 4 2 3 6 6 3 2 1 1 1 5 6 5 5 7 8 8 6 3 3 6 9 10 7 9 11 6 3 4 6 9 12 13 20 24 19 18 24 24 27 31 32
9 4 4 9 13 12 9 4 2 0 2 4 3 4 5 3 5 7 6 5 2 2 2 2 1 2 2 2 4 6 5 5 5 5 5 7 8 8 9 13 13 10 13 15 8 5 2 3 3 4 6 4 4 3 1 1 3 4 4 6 9 10 11 8 4 6 9 9 9 9 10 13 12 5 5 8 11 13 11 15 20 17 17 24 26 27 31 32
6 2 4 7 11 13 12 8 7 2 1 2 2 3 4 4 7 9 5 3 2 6 4 2 1 2 2 5 8 7 5 7 8 7 8 10 9 7 8 17 22 19 19 21 11 7 1 4 7 9 8 7 8 6 2 2 4 5 6 8 9 11 13 10 6 8 9 5 7 13 15 16 19 15 12 11 10 12 11 9 15 19 18 21 26 30 34 33
4 1 2 4 6 7 8 8 9 4 1 0 1 2 4 5 7 7 3 2 5 9 4 2 1 3 3 8 10 8 7 7 8 11 12 11 10 11 14 20 21 16 13 9 6 8 2 6 8 10 12 12 12 9 7 8 10 10 10 9 8 8 10 11 11 9 5 3 10 17 15 15 20 20 17 14 9 7 8 9 16 23 22 22 25 30 34 34
4 2 1 2 3 1 2 4 7 5 1 2 1 1 3 5 6 6 4 5 8 8 2 1 1 3 5 8 7 6 10 10 8 8 9 8 9 14 15 13 9 4 6 4 5 4 3 6 6 7 12 13 12 10 10 11 12 11 12 12 10 8 9 12 15 13 7 8 15 17 12 12 18 19 15 13 8 5 9 15 22 26 27 25 23 23 28 31
5 2 0 2 3 2 3 6 7 4 1 1 0 2 3 5 6 6 5 5 7 5 1 2 5 7 9 9 6 6 8 8 9 10 10 11 11 12 12 10 5 2 6 3 2 2 2 4 5 6 11 13 11 10 10 12 13 11 12 13 12 11 12 13 14 15 14 16 20 21 18 18 19 17 14 13 10 9 13 20 24 26 26 26 23 23 26 28
6 3 2 4 3 2 3 6 5 2 1 1 1 2 3 4 6 9 7 6 5 2 1 4 9 11 12 10 8 9 9 8 11 15 14 14 14 9 6 6 6 5 7 5 2 3 3 3 4 4 8 9 6 5 7 9 12 11 10 11 11 11 12 13 14 15 15 17 19 19 19 20 15 9 10 13 12 10 12 18 23 25 24 24 25 26 27 26
6 5 5 3 2 2 3 4 3 1 1 1 1 3 3 3 7 12 10 8 9 6 3 7 12 12 12 12 11 12 13 12 16 22 20 18 17 14 9 8 9 9 10 8 5 2 3 4 4 4 7 6 0 1 3 2 6 7 8 9 10 11 12 12 12 12 13 15 16 15 15 15 9 6 8 13 12 9 10 15 20 22 21 22 24 26 27 27
6 6 6 4 2 0 2 2 1 1 1 0 1 3 4 6 9 11 8 4 5 7 6 9 13 12 10 11 12 14 20 23 28 34 32 25 25 25 22 21 19 12 7 7 6 3 4 4 5 4 5 5 2 4 3 4 4 1 2 3 6 9 11 12 11 11 12 12 11 11 11 10 9 10 12 13 12 9 9 14 18 20 23 26 27 27 28 27
Wind_Direction
0 360 360 359 359 359 358 359 359 358 356 353 350 346 344 342 342 341 341 341 340 342 342 342 341 339 335 329 327 328 328 329 326 321 330 330 316 294 274 266 264 271 276 280 281 278 274 272 267 252 247 228 225 215 208 208 194 188 198 225 228 223 214 187 194 195 187 192 194 204 204 213 224 219 228 231 218 218 218 208 204 204 212 237 249 259 265 263
353 353 353 353 354 355 354 354 355 355 354 353 350 346 343 341 341 340 341 341 341 343 344 345 343 343 340 334 335 333 333 337 340 7 28 8 356 344 302 276 272 275 281 282 277 264 258 267 254 229 212 203 213 201 202 200 195 199 197 224 228 225 203 159 202 190 188 216 199 202 206 214 223 216 220 234 227 220 228 210 180 194 208 230 245 253 259 256
347 347 347 348 350 352 351 350 350 351 352 351 348 347 344 342 342 341 340 340 342 343 343 346 345 346 344 337 338 335 335 342 6 75 56 31 24 30 48 48 343 312 314 313 298 278 268 274 260 223 191 195 198 189 197 192 199 211 221 230 227 230 122 67 46 87 20 323 205 209 211 216 225 221 217 232 240 226 226 214 172 187 205 227 239 243 249 245
342 342 343 345 346 347 348 347 345 347 349 348 346 345 344 342 343 342 341 340 340 341 339 345 347 347 345 338 336 335 338 346 99 111 85 50 27 23 31 1 338 328 325 327 328 324 308 313 311 212 178 199 184 179 200 196 199 207 222 236 351 19 156 79 32 30 20 7 352 310 240 231 233 229 226 227 238 238 228 210 202 209 210 221 230 237 242 235
342 340 341 340 339 341 343 342 340 344 347 347 344 344 344 343 344 345 345 342 340 339 337 345 350 348 348 341 335 335 336 340 136 126 118 77 14 356 340 326 323 324 325 329 337 333 328 335 339 125 158 153 162 186 211 205 219 226 226 357 37 4 282 21 15 6 6 7 352 347 318 306 307 243 237 234 237 241 234 220 226 231 222 220 228 239 240 230
346 344 342 338 336 337 338 338 338 342 346 347 345 345 346 345 347 348 347 343 342 340 337 346 350 349 352 350 343 339 331 294 164 162 189 282 301 272 293 311 313 320 325 322 331 328 332 333 331 84 115 104 157 200 321 339 269 245 233 35 23 11 326 329 352 348 349 355 348 342 325 339 330 275 263 252 243 239 236 231 240 242 236 234 235 238 236 230
351 349 347 341 337 337 336 337 340 343 346 347 346 346 347 349 351 350 345 342 344 344 342 345 346 348 353 355 352 339 308 270 224 241 267 269 252 236 265 305 314 316 329 328 346 357 21 34 89 84 75 122 144 196 338 337 322 254 253 24 5 9 341 330 335 326 332 325 317 316 308 330 315 288 288 263 245 235 230 231 242 246 242 238 233 233 233 233
355 352 349 344 340 338 337 338 342 344 347 348 346 345 346 349 352 351 345 340 342 345 344 342 340 343 348 352 351 342 325 293 250 265 271 239 218 239 276 318 337 341 357 360 7 12 39 54 71 82 174 110 133 298 358 334 342 244 314 4 354 352 335 331 327 320 325 316 308 297 290 284 274 288 285 266 255 239 228 231 238 247 249 241 234 232 231 234
358 354 349 345 343 341 339 340 343 344 347 347 345 344 345 347 349 347 343 339 339 340 340 337 333 337 343 347 346 346 3 9 289 283 225 216 229 260 290 311 335 341 345 356 1 2 25 40 44 58 173 113 171 310 12 312 121 60 343 342 338 331 328 325 321 320 317 311 306 291 283 272 276 288 275 266 263 252 243 249 251 249 257 251 238 230 229 237
360 354 350 346 343 342 340 340 342 342 345 346 344 343 342 344 344 341 340 340 337 334 332 329 329 335 337 341 345 6 40 14 250 275 241 252 265 276 290 294 306 320 328 341 350 353 5 4 351 12 353 136 165 292 7 253 356 16 330 321 316 308 311 309 306 302 299 299 288 280 281 277 278 271 259 285 289 258 254 263 266 258 257 255 244 232 226 234
1 356 351 345 343 341 338 339 341 341 343 344 343 343 341 340 340 339 339 341 340 336 334 331 331 333 335 343 354 41 26 22 225 263 252 269 289 291 288 279 285 303 316 326 340 346 351 352 337 316 311 153 207 265 189 92 355 349 324 308 297 300 282 259 266 271 273 282 273 272 280 277 271 249 233 116 109 275 281 277 276 266 253 251 249 238 229 231
0 355 350 346 343 339 337 339 339 340 342 342 344 343 339 338 338 339 342 347 349 345 340 336 333 336 344 5 26 346 357 14 311 287 273 292 314 316 303 281 277 287 302 317 341 350 340 342 338 294 286 324 306 275 176 6 331 307 307 302 289 312 281 245 244 249 240 238 238 247 274 260 247 244 229 169 256 270 281 276 280 278 261 250 249 243 236 235
359 354 350 345 342 338 338 338 339 342 341 341 346 342 337 338 338 342 353 359 354 348 345 345 348 3 16 37 43 30 30 29 343 316 315 329 357 3 4 326 289 281 293 315 341 348 334 327 325 298 293 301 287 293 320 332 313 277 266 291 295 293 282 32 282 247 232 237 216 198 254 243 236 246 248 297 259 259 266 267 271 272 268 255 249 247 243 242
359 354 350 345 343 341 340 340 340 342 341 342 345 341 337 338 341 350 3 1 358 5 13 18 27 44 54 64 53 49 64 55 12 324 313 341 31 28 39 32 358 297 290 316 330 330 329 324 309 294 285 276 277 292 308 322 313 289 262 221 285 278 183 57 354 228 210 232 214 206 245 248 243 252 359 270 254 250 259 263 266 267 267 256 248 249 248 246
359 355 352 351 349 346 345 344 341 342 343 343 343 342 339 341 348 0 8 3 14 34 40 45 49 53 64 67 44 31 44 43 346 297 297 303 307 320 355 13 7 336 294 307 313 308 320 328 306 289 275 273 295 292 296 317 34 327 261 218 188 242 211 349 341 203 225 245 215 216 243 255 260 299 31 261 257 254 255 258 262 264 263 258 248 248 250 249
358 357 358 359 358 356 352 346 343 343 343 340 341 342 342 348 1 12 12 11 33 45 43 49 54 60 64 50 37 25 26 15 342 308 298 294 283 293 295 296 309 305 295 287 287 285 295 313 284 262 265 262 285 305 303 282 246 103 259 249 172 249 264 354 2 116 324 303 227 227 247 266 308 338 334 308 284 270 265 264 262 261 260 257 250 247 250 251
358 359 2 4 4 1 355 350 346 344 343 343 344 345 349 1 23 29 17 22 51 48 43 44 46 77 62 34 29 16 15 10 359 348 325 303 283 285 278 278 285 255 268 280 277 270 261 268 247 242 325 329 239 317 288 267 254 120 243 243 210 262 271 300 245 2 354 329 270 254 262 274 291 310 314 317 319 299 281 275 268 263 260 255 250 246 246 249
359 1 4 6 6 2 358 354 348 347 348 349 352 355 2 19 56 42 24 30 49 47 43 36 31 97 44 9 354 350 358 357 357 0 353 341 317 295 271 277 285 266 284 287 275 244 218 199 183 243 164 174 193 203 251 270 343 38 224 264 290 260 259 261 250 338 346 324 297 283 274 276 286 293 299 303 309 302 290 288 282 266 260 258 251 245 245 247
0 1 5 7 5 3 360 355 352 352 353 359 4 4 18 54 85 50 30 34 42 46 37 14 16 83 313 338 339 341 348 346 351 360 358 353 339 314 280 289 295 275 299 294 276 91 188 198 184 228 223 221 214 214 241 238 85 52 312 293 293 281 270 266 265 292 320 305 288 280 275 280 285 286 296 302 302 296 291 293 290 272 260 259 252 247 248 248
0 1 4 6 5 4 1 358 358 356 357 6 8 8 28 39 59 29 13 28 41 37 30 348 355 15 320 335 342 343 345 345 350 2 10 11 354 330 306 304 307 263 285 287 305 50 265 252 234 242 247 234 223 221 240 245 232 275 275 271 271 274 274 268 270 278 289 286 275 272 277 281 279 280 288 291 291 286 283 285 283 278 268 260 252 247 249 252
359 359 1 4 4 4 3 1 1 360 3 7 9 27 50 32 28 339 346 8 31 18 23 6 346 341 345 347 350 346 345 344 350 10 20 13 5 348 340 344 329 295 333 305 288 298 253 265 249 245 252 246 235 220 228 242 252 260 262 273 270 262 270 274 274 270 259 262 269 274 281 278 274 278 277 276 278 275 273 275 276 277 274 268 260 250 247 252
359 356 357 0 1 3 5 3 4 6 9 6 14 43 65 44 33 348 340 328 342 5 21 3 353 356 354 354 354 348 344 340 349 11 7 357 6 11 354 351 318 304 350 268 272 266 252 267 265 241 229 227 233 219 219 236 249 254 253 268 267 258 270 275 263 258 248 251 272 284 284 281 279 278 270 266 266 270 272 271 271 273 271 267 264 259 250 249
357 355 353 356 359 1 4 5 7 10 13 11 20 40 50 35 19 347 340 306 305 354 8 348 346 356 356 357 354 346 343 340 338 352 356 358 17 7 334 328 302 283 274 247 271 282 272 292 310 222 190 191 222 212 207 233 243 245 245 255 258 252 254 260 244 261 270 263 275 288 287 284 283 273 262 255 254 262 267 265 263 263 261 259 260 260 255 249
354 355 351 351 356 359 2 6 8 12 15 14 21 31 24 14 5 337 332 299 284 341 354 343 340 355 358 355 352 343 334 337 330 337 355 10 7 345 325 344 307 272 266 253 254 268 271 269 167 200 189 201 232 220 206 232 250 238 234 246 259 256 244 252 265 282 285 269 265 280 287 282 273 265 262 248 242 249 257 259 257 254 254 255 258 260 260 254
349 351 350 346 350 356 359 4 8 12 14 13 17 20 10 2 0 350 341 283 259 336 346 343 342 356 360 352 350 341 321 330 345 340 3 11 0 343 325 344 291 297 336 298 264 269 277 257 225 233 223 217 235 236 218 222 255 252 230 235 251 259 248 248 255 264 278 273 255 249 272 278 256 239 251 252 249 250 253 256 256 252 249 248 249 254 259 259
346 347 348 344 341 353 358 1 7 12 13 9 8 7 359 354 354 357 356 326 191 345 344 345 345 352 356 348 346 340 310 342 343 334 358 359 357 338 309 329 244 303 343 334 293 270 287 237 209 234 242 230 233 243 221 204 249 269 224 216 235 243 244 244 245 236 250 276 241 171 264 281 280 255 243 261 283 277 266 262 263 260 253 246 241 246 256 259
347 344 345 342 336 350 1 2 3 9 12 3 359 355 344 340 348 343 327 28 41 342 332 335 346 348 346 343 346 352 269 322 331 300 273 337 347 339 298 302 243 275 26 342 297 225 207 262 224 235 249 241 239 248 203 190 240 260 146 168 216 224 234 242 243 236 248 275 270 235 256 272 278 269 238 254 276 276 270 265 265 264 259 250 243 245 252 257
349 343 342 341 335 347 359 1 0 5 5 359 355 347 334 330 348 328 165 88 1 335 337 337 339 341 339 341 352 17 296 314 329 282 319 328 334 330 290 268 266 268 144 294 277 236 154 257 256 245 256 251 245 249 190 193 235 243 165 197 235 231 238 245 247 249 254 268 264 241 234 255 270 265 180 236 265 270 268 263 262 265 265 256 243 245 252 260
352 346 343 340 338 349 356 359 1 360 357 357 354 343 334 343 112 98 101 84 333 344 351 342 339 336 339 344 356 16 331 324 334 311 322 324 317 319 292 270 281 272 248 224 255 270 256 254 270 266 263 253 245 249 200 199 227 243 222 246 253 239 242 243 243 253 250 249 258 246 224 243 268 266 217 229 254 265 268 267 265 267 270 268 256 252 258 265
354 352 351 350 349 353 357 360 360 356 353 353 349 343 351 125 136 97 45 14 332 347 332 332 341 336 345 351 347 359 357 332 310 313 318 321 312 310 266 270 291 273 269 235 249 267 275 277 275 260 254 240 237 252 220 212 225 245 272 262 255 238 235 236 231 243 250 243 251 250 236 240 267 272 245 231 253 266 271 273 271 266 266 268 264 257 260 265
355 356 1 6 356 354 359 2 358 355 353 350 346 349 97 122 78 91 62 355 296 328 331 336 343 339 351 1 320 337 354 312 320 332 331 330 319 320 285 268 268 250 267 246 250 273 284 277 261 245 245 227 222 245 229 215 221 230 249 262 276 262 236 231 211 199 236 248 248 248 241 239 251 260 249 240 247 254 259 262 266 266 263 267 267 260 260 262
355 357 4 4 359 356 358 0 357 355 351 347 348 5 148 85 23 107 311 334 313 326 343 336 343 339 338 340 261 308 325 315 340 348 341 337 324 316 290 246 319 297 302 304 296 305 288 264 261 267 244 216 217 237 233 220 209 211 225 236 257 260 251 243 228 207 233 252 254 245 239 237 247 257 257 254 248 247 251 253 258 263 263 266 270 266 259 258
356 354 360 4 360 355 357 358 355 354 350 348 352 123 124 40 29 213 284 335 319 312 331 310 320 325 317 317 318 315 300 283 342 342 339 327 308 300 251 203 204 283 307 313 317 317 297 255 170 253 228 200 207 225 236 226 206 210 214 214 232 246 248 239 239 240 247 255 250 237 241 246 254 250 241 245 251 251 252 253 254 257 259 262 265 264 257 257
360 2 360 2 359 353 355 354 351 351 350 351 3 122 67 36 344 245 289 296 275 295 321 314 320 321 306 303 331 341 316 256 355 341 324 303 294 309 294 201 183 209 277 286 307 315 294 296 189 196 116 185 202 222 240 239 230 227 214 213 232 238 240 239 246 254 260 270 254 230 231 236 245 252 232 242 256 257 256 257 255 253 254 257 260 259 255 254
1 7 351 359 1 354 350 349 349 349 348 354 30 78 55 120 276 320 250 276 290 307 311 310 323 321 332 297 276 25 18 304 355 341 319 313 309 306 303 201 181 182 178 302 307 259 272 276 235 220 76 185 207 223 231 239 251 239 198 209 234 236 239 250 266 270 277 288 268 245 250 249 260 291 289 272 270 266 260 260 258 253 252 252 253 255 253 252
356 344 340 359 3 356 348 347 348 348 348 358 62 65 56 214 257 184 190 307 309 320 320 320 354 329 330 334 289 102 150 250 328 334 319 312 301 263 229 238 182 187 195 326 309 269 273 272 216 252 259 215 222 232 208 213 234 215 200 226 233 215 231 248 254 251 246 268 263 252 260 266 273 281 275 270 275 273 261 258 259 256 253 253 252 252 252 252
353 325 314 356 4 0 350 346 347 351 358 30 83 87 313 269 181 186 254 334 306 348 6 341 350 350 335 322 309 337 336 264 301 329 327 321 300 192 211 260 172 188 206 208 253 264 274 279 259 248 258 226 216 239 222 214 223 217 215 230 200 151 213 244 246 216 222 250 255 250 261 270 276 273 267 270 284 296 295 286 278 266 255 256 262 260 256 253
351 325 297 351 1 0 356 349 347 351 17 54 70 100 319 300 212 245 302 328 303 75 86 217 302 7 343 314 301 328 334 319 320 329 321 310 276 168 225 257 173 192 188 174 226 234 230 283 274 215 229 209 153 229 242 223 225 234 255 264 192 209 212 214 228 234 237 249 257 258 264 268 264 263 275 285 287 300 318 321 315 299 275 258 259 258 254 251
349 334 319 354 357 359 360 357 355 2 45 68 41 76 149 282 283 296 312 317 252 134 107 228 236 359 329 296 297 315 321 312 321 328 316 274 251 185 208 225 195 210 188 170 201 198 175 267 292 172 173 35 54 208 253 239 216 223 264 268 247 253 234 216 221 243 242 249 265 272 269 264 258 256 273 294 289 278 288 301 308 311 306 296 283 272 266 262
353 346 348 352 353 355 356 9 30 37 56 75 310 250 300 293 298 312 327 322 227 196 293 216 180 311 281 262 289 306 306 299 309 311 279 235 271 259 230 205 196 213 202 193 203 203 176 227 263 237 136 313 278 201 213 254 225 210 225 234 231 233 244 238 226 235 249 253 265 274 274 270 259 222 250 291 289 271 278 287 284 289 299 300 291 281 279 279
2 1 348 346 349 351 354 27 44 40 74 112 288 231 312 311 301 317 336 340 263 245 266 225 191 225 256 289 301 316 314 303 300 292 270 233 234 261 213 172 192 212 203 212 213 195 191 224 253 266 260 250 253 228 215 240 248 233 216 216 226 223 228 244 224 218 244 250 257 267 280 279 257 143 202 267 275 284 290 284 276 274 283 286 280 280 288 289
8 7 336 344 349 351 359 58 51 27 125 16 321 272 296 305 294 316 335 347 353 321 272 241 222 229 248 277 301 328 323 302 283 272 263 238 225 238 250 234 246 263 248 257 240 197 199 250 255 261 267 254 260 285 272 239 230 246 231 218 226 221 223 239 233 218 220 232 249 257 272 279 253 132 177 224 250 281 278 272 270 269 276 279 277 283 293 295
3 356 338 348 354 359 17 84 42 22 94 337 316 285 300 298 286 319 332 338 348 339 310 272 243 252 263 272 312 327 325 298 269 253 257 272 249 240 263 271 269 265 249 277 267 202 197 244 254 264 276 254 250 292 293 239 213 232 240 223 225 222 222 239 248 250 241 234 240 243 253 267 257 138 184 192 208 250 261 270 277 278 280 282 282 288 296 299
354 355 10 2 1 12 39 63 339 355 349 335 334 346 338 304 292 315 315 310 326 331 297 294 280 264 290 337 309 302 305 287 268 259 261 278 270 264 285 284 277 267 238 240 222 170 195 222 240 281 295 282 259 296 25 160 204 228 236 217 226 229 229 253 271 264 262 246 240 249 257 262 259 153 174 207 233 251 260 273 280 282 285 288 289 292 296 299
356 7 29 11 12 36 70 78 36 47 330 343 340 345 351 319 309 321 302 276 311 354 303 265 290 288 286 318 296 279 266 243 258 283 272 273 285 290 297 298 290 274 261 260 237 159 201 244 209 268 287 286 292 292 41 69 204 216 223 217 224 223 220 234 240 233 249 242 231 240 251 263 269 247 216 237 256 269 267 270 281 286 285 285 286 287 291 293
17 16 359 1 24 54 76 67 42 42 321 1 349 346 357 322 316 334 320 254 4 359 318 243 336 348 328 334 325 307 273 229 239 275 283 280 288 287 305 314 302 288 284 279 245 167 197 262 226 239 251 261 276 267 218 260 249 232 223 213 217 219 216 221 223 229 240 236 234 241 243 260 274 269 256 249 250 265 271 281 291 285 275 274 281 288 292 290
37 40 357 350 14 54 74 56 34 25 297 17 17 352 345 321 323 342 335 281 341 342 315 204 57 27 342 334 330 313 302 280 258 270 279 278 287 295 302 304 295 293 315 310 200 161 243 274 241 238 240 250 267 261 235 242 251 249 243 230 229 228 218 218 227 235 242 247 253 250 239 247 265 269 269 269 268 270 283 295 289 284 281 276 281 291 291 287
38 84 83 360 340 28 59 14 3 358 277 208 181 8 338 333 347 348 329 322 331 333 328 202 18 5 326 322 323 301 306 310 288 276 284 288 306 315 315 313 302 325 32 50 154 153 284 273 251 248 251 256 265 261 241 238 245 246 243 242 245 243 230 230 238 244 242 241 253 261 258 254 264 271 279 292 305 296 286 287 284 285 289 285 282 283 280 281
42 73 193 329 320 266 285 318 328 336 302 250 276 32 349 335 342 336 314 313 320 321 328 286 299 324 322 315 310 298 303 312 305 299 303 307 313 316 315 316 312 42 59 57 212 208 245 264 270 267 269 273 269 253 233 228 235 236 237 243 244 242 239 241 248 254 251 249 256 269 279 276 272 278 290 303 310 292 283 288 287 288 293 294 293 288 282 284
49 41 339 325 325 297 305 325 330 327 336 338 359 18 346 323 327 330 312 276 275 289 21 316 311 321 324 316 304 285 271 272 283 287 294 306 311 312 309 295 281 308 338 334 274 202 200 267 304 286 283 286 267 240 237 229 227 231 242 249 246 245 248 249 252 255 255 256 260 266 274 274 274 286 298 298 297 287 281 288 292 295 298 300 299 295 290 289
43 31 11 349 331 321 324 333 334 303 286 21 14 350 343 319 326 332 314 254 239 252 301 326 322 323 319 307 295 284 281 282 279 275 276 280 280 278 275 265 272 306 319 309 296 234 217 279 305 302 305 304 174 32 322 224 198 220 245 259 258 254 252 253 254 247 240 248 260 262 261 267 286 333 314 294 290 284 280 291 298 300 301 302 301 297 295 292
24 20 15 358 333 334 343 334 330 309 287 109 8 342 319 307 319 326 318 268 239 256 282 312 314 312 308 297 291 297 302 300 290 285 281 271 261 261 261 258 264 277 286 292 303 268 240 291 307 309 313 303 334 19 36 122 129 193 258 272 269 257 253 258 262 254 242 241 253 260 262 277 313 330 312 301 302 295 291 300 303 300 300 302 299 294 292 290
Height
1541 1539 1538 1537 1536 1534 1533 1532 1530 1529 1527 1526 1524 1523 1522 1520 1519 1518 1516 1515 1514 1512 1511 1510 1509 1508 1507 1506 1505 1504 1504 1503 1502 1502 1501 1500 1500 1499 1499 1499 1499 1499 1499 1499 1499 1499 1499 1499 1498 1498 1499 1499 1500 1500 1501 1501 1503 1504 1503 1503 1499 1496 1495 1492 1493 1495 1494 1495 1496 1496 1497 1497 1498 1499 1500 1501 1501 1501 1501 1501 1502 1502 1504 1506 1505 1506 1507 1508
1540 1539 1538 1536 1535 1534 1533 1531 1530 1528 1527 1525 1523 1522 1521 1519 1518 1517 1516 1514 1513 1512 1510 1509 1508 1507 1506 1505 1504 1503 1502 1502 1501 1501 1501 1500 1499 1499 1498 1498 1498 1498 1498 1498 1498 1498 1498 1498 1498 1498 1498 1498 1499 1499 1500 1500 1501 1499 1499 1499 1494 1490 1490 1490 1491 1492 1493 1493 1493 1493 1495 1495 1495 1497 1499 1499 1498 1498 1498 1498 1500 1501 1503 1504 1504 1504 1506 1507
1540 1538 1537 1536 1535 1533 1532 1531 1529 1528 1526 1524 1523 1521 1520 1519 1517 1516 1515 1514 1512 1511 1510 1508 1507 1506 1505 1504 1503 1502 1501 1501 1500 1500 1500 1500 1500 1499 1499 1499 1498 1498 1498 1498 1498 1498 1497 1497 1497 1497 1497 1498 1498 1498 1498 1499 1499 1497 1497 1496 1490 1489 1491 1492 1493 1493 1495 1494 1492 1493 1494 1494 1495 1497 1498 1497 1496 1495 1495 1496 1499 1500 1501 1502 1503 1503 1504 1505
1539 1538 1536 1535 1534 1533 1531 1530 1529 1527 1526 1524 1522 1520 1519 1518 1517 1515 1514 1513 1511 1510 1509 1508 1507 1506 1505 1503 1502 1501 1501 1500 1500 1500 1500 1500 1500 1500 1499 1499 1498 1498 1498 1497 1497 1497 1497 1497 1496 1496 1497 1497 1497 1498 1498 1498 1497 1497 1496 1493 1491 1492 1492 1493 1495 1495 1495 1494 1494 1493 1493 1494 1495 1496 1495 1494 1495 1493 1493 1494 1497 1498 1499 1500 1501 1502 1503 1503
1539 1537 1536 1535 1533 1532 1531 1530 1528 1527 1525 1524 1522 1520 1518 1517 1516 1514 1513 1512 1510 1509 1508 1507 1506 1505 1504 1503 1501 1501 1500 1499 1499 1499 1499 1499 1500 1500 1499 1499 1498 1498 1497 1497 1497 1497 1497 1497 1496 1496 1496 1496 1497 1497 1497 1497 1497 1496 1494 1493 1494 1494 1493 1493 1495 1495 1495 1494 1494 1494 1494 1494 1494 1494 1493 1492 1492 1490 1491 1494 1496 1497 1497 1498 1499 1499 1500 1501
1538 1537 1535 1534 1533 1532 1530 1529 1527 1526 1525 1523 1521 1520 1518 1517 1515 1514 1512 1510 1509 1508 1507 1506 1506 1504 1503 1502 1500 1500 1499 1498 1498 1498 1498 1499 1499 1499 1499 1498 1498 1497 1497 1497 1497 1496 1496 1496 1496 1496 1496 1496 1497 1496 1496 1497 1497 1495 1494 1495 1496 1496 1495 1494 1495 1494 1495 1495 1494 1494 1494 1494 1494 1492 1491 1490 1488 1488 1490 1492 1494 1495 1496 1495 1496 1496 1497 1498
1537 1536 1535 1533 1532 1530 1529 1528 1526 1525 1524 1522 1520 1519 1518 1516 1515 1513 1511 1510 1508 1508 1507 1506 1505 1504 1503 1501 1500 1499 1498 1498 1498 1498 1498 1498 1499 1499 1499 1499 1498 1497 1497 1497 1496 1496 1495 1495 1495 1496 1496 1496 1497 1496 1496 1496 1497 1496 1495 1496 1496 1497 1496 1495 1494 1494 1494 1495 1494 1495 1494 1494 1494 1491 1490 1487 1485 1487 1490 1491 1492 1493 1494 1494 1493 1493 1494 1495
1537 1536 1534 1532 1531 1529 1528 1527 1525 1524 1522 1521 1519 1518 1516 1515 1514 1513 1511 1509 1508 1507 1506 1505 1504 1503 1502 1500 1500 1498 1498 1497 1498 1498 1498 1498 1498 1499 1499 1499 1498 1497 1497 1497 1496 1496 1495 1495 1495 1496 1496 1496 1497 1497 1497 1496 1496 1496 1496 1497 1497 1497 1496 1495 1494 1494 1494 1494 1494 1494 1493 1493 1492 1492 1489 1483 1483 1487 1489 1489 1490 1491 1492 1492 1492 1492 1492 1493
1537 1535 1533 1532 1530 1529 1527 1526 1524 1523 1522 1520 1518 1516 1515 1514 1513 1511 1510 1509 1508 1507 1506 1504 1503 1502 1501 1500 1499 1498 1497 1498 1498 1498 1498 1498 1499 1499 1498 1498 1498 1498 1497 1496 1496 1496 1495 1496 1495 1495 1496 1496 1497 1496 1497 1496 1495 1496 1497 1497 1497 1497 1496 1496 1495 1494 1494 1493 1493 1493 1492 1491 1491 1491 1486 1480 1483 1486 1487 1488 1489 1490 1490 1490 1491 1491 1491 1491
1537 1535 1533 1531 1529 1528 1527 1525 1524 1523 1521 1520 1518 1516 1514 1513 1512 1510 1509 1508 1507 1506 1504 1503 1502 1501 1501 1500 1499 1498 1498 1498 1498 1498 1498 1498 1499 1499 1498 1498 1498 1497 1497 1497 1496 1496 1496 1496 1496 1496 1495 1496 1496 1496 1496 1496 1495 1497 1497 1496 1496 1496 1496 1496 1495 1495 1494 1493 1492 1492 1491 1489 1489 1490 1482 1478 1482 1485 1486 1487 1488 1489 1489 1489 1490 1490 1491 1491
1537 1535 1533 1531 1529 1527 1526 1525 1523 1522 1521 1519 1518 1516 1514 1513 1511 1510 1508 1507 1505 1504 1503 1502 1501 1500 1500 1499 1498 1498 1498 1498 1498 1498 1498 1499 1498 1498 1498 1497 1497 1497 1497 1497 1497 1496 1496 1496 1496 1496 1495 1495 1495 1495 1496 1496 1496 1496 1496 1495 1495 1495 1495 1494 1494 1493 1493 1492 1491 1491 1490 1487 1487 1484 1478 1478 1482 1484 1486 1486 1487 1488 1488 1489 1489 1489 1490 1490
1537 1535 1533 1531 1528 1527 1525 1524 1523 1521 1520 1518 1517 1515 1513 1512 1510 1509 1507 1506 1505 1503 1502 1501 1500 1499 1499 1498 1499 1498 1498 1498 1498 1499 1498 1498 1498 1497 1496 1496 1496 1496 1496 1496 1496 1496 1496 1496 1496 1496 1495 1495 1495 1494 1495 1495 1496 1496 1495 1494 1493 1493 1492 1491 1491 1491 1491 1491 1490 1492 1491 1486 1480 1474 1473 1479 1483 1485 1485 1485 1486 1487 1487 1488 1488 1488 1488 1489
1536 1534 1532 1530 1528 1526 1524 1523 1522 1521 1519 1518 1516 1514 1512 1511 1509 1508 1507 1506 1504 1503 1501 1500 1499 1499 1498 1498 1499 1498 1498 1499 1499 1499 1499 1498 1498 1497 1496 1495 1495 1496 1496 1496 1496 1496 1496 1495 1496 1495 1495 1495 1494 1494 1494 1494 1494 1494 1494 1493 1492 1491 1490 1489 1489 1489 1489 1489 1488 1491 1490 1479 1471 1469 1473 1479 1482 1484 1484 1483 1485 1486 1487 1487 1487 1487 1487 1488
1536 1533 1531 1529 1527 1525 1524 1522 1521 1520 1518 1517 1515 1514 1512 1510 1509 1508 1507 1505 1504 1502 1501 1500 1499 1498 1498 1499 1500 1499 1499 1499 1499 1499 1498 1498 1497 1497 1496 1495 1495 1495 1495 1495 1495 1495 1495 1495 1495 1495 1495 1495 1494 1494 1493 1494 1493 1493 1492 1491 1492 1490 1488 1488 1489 1488 1488 1487 1486 1490 1486 1474 1468 1471 1475 1479 1481 1483 1482 1481 1483 1484 1485 1486 1486 1487 1486 1486
1536 1533 1530 1528 1526 1525 1523 1522 1520 1519 1517 1516 1514 1513 1511 1509 1508 1507 1506 1505 1504 1502 1501 1500 1499 1499 1499 1500 1500 1500 1500 1500 1499 1499 1498 1497 1497 1496 1495 1495 1495 1494 1495 1495 1495 1495 1495 1495 1495 1495 1494 1494 1494 1493 1493 1492 1492 1493 1491 1489 1491 1490 1488 1487 1488 1487 1487 1485 1485 1488 1483 1472 1470 1473 1475 1479 1480 1480 1480 1480 1481 1482 1483 1484 1485 1485 1484 1484
1535 1532 1530 1528 1526 1525 1523 1522 1520 1518 1517 1515 1513 1512 1510 1509 1508 1507 1506 1505 1504 1503 1502 1501 1500 1500 1499 1500 1501 1500 1500 1500 1500 1499 1498 1497 1496 1495 1495 1494 1494 1494 1494 1494 1494 1494 1494 1494 1494 1494 1494 1494 1494 1493 1492 1491 1491 1493 1491 1489 1491 1490 1488 1488 1487 1487 1487 1485 1484 1484 1479 1473 1473 1474 1475 1478 1478 1479 1478 1478 1479 1480 1481 1482 1483 1483 1483 1482
1535 1532 1530 1528 1526 1525 1523 1521 1520 1518 1516 1514 1512 1511 1509 1508 1507 1507 1506 1505 1504 1503 1502 1502 1501 1500 1499 1501 1501 1501 1500 1500 1499 1498 1496 1495 1495 1494 1494 1493 1493 1493 1493 1493 1493 1493 1493 1494 1494 1493 1493 1494 1494 1494 1494 1491 1488 1491 1492 1492 1493 1493 1490 1490 1488 1486 1487 1486 1484 1482 1478 1475 1475 1474 1476 1477 1478 1478 1476 1476 1477 1478 1478 1479 1480 1480 1481 1480
1535 1532 1530 1529 1527 1525 1523 1521 1520 1517 1515 1513 1511 1510 1508 1507 1507 1507 1506 1505 1504 1503 1502 1502 1501 1501 1501 1501 1502 1501 1500 1499 1498 1497 1496 1495 1494 1493 1493 1493 1493 1493 1493 1493 1492 1492 1492 1493 1493 1493 1493 1494 1494 1494 1494 1490 1489 1492 1493 1493 1494 1494 1493 1492 1491 1487 1487 1486 1485 1482 1478 1476 1476 1475 1477 1477 1477 1476 1474 1474 1476 1476 1477 1476 1477 1478 1478 1478
1535 1532 1531 1529 1527 1525 1523 1521 1519 1517 1515 1513 1511 1509 1508 1507 1507 1507 1507 1506 1504 1503 1504 1504 1503 1504 1505 1503 1502 1502 1501 1499 1498 1497 1496 1495 1494 1494 1493 1494 1493 1493 1493 1493 1492 1492 1492 1492 1493 1492 1492 1492 1492 1492 1491 1491 1492 1494 1495 1495 1496 1495 1492 1491 1491 1489 1489 1488 1485 1481 1478 1476 1476 1475 1476 1476 1476 1475 1472 1472 1473 1474 1474 1474 1475 1475 1475 1475
1535 1533 1531 1529 1527 1525 1523 1522 1519 1517 1514 1512 1511 1509 1508 1508 1508 1508 1507 1506 1506 1506 1507 1507 1506 1506 1506 1504 1502 1501 1500 1499 1498 1497 1496 1494 1494 1493 1493 1493 1493 1493 1493 1493 1492 1493 1493 1492 1491 1490 1489 1489 1490 1491 1491 1492 1494 1495 1495 1496 1495 1495 1491 1489 1490 1489 1489 1489 1482 1478 1477 1476 1475 1475 1475 1475 1474 1472 1470 1471 1471 1471 1472 1472 1472 1472 1472 1472
1534 1533 1531 1529 1527 1525 1524 1522 1520 1517 1514 1513 1512 1510 1511 1512 1512 1512 1510 1507 1507 1507 1507 1507 1506 1506 1505 1504 1502 1500 1499 1497 1497 1497 1496 1495 1494 1493 1493 1493 1493 1493 1493 1494 1493 1493 1494 1491 1489 1489 1489 1490 1491 1492 1493 1493 1493 1494 1494 1493 1493 1492 1489 1487 1489 1487 1487 1487 1480 1476 1476 1473 1472 1473 1474 1474 1471 1467 1466 1469 1468 1468 1470 1470 1469 1469 1469 1469
1534 1533 1531 1529 1527 1526 1524 1522 1520 1518 1516 1515 1513 1512 1514 1516 1516 1516 1515 1512 1508 1507 1508 1507 1506 1506 1505 1504 1502 1501 1500 1497 1496 1496 1495 1494 1494 1493 1493 1494 1494 1493 1494 1494 1493 1492 1492 1489 1487 1489 1490 1491 1492 1492 1493 1493 1493 1493 1492 1493 1492 1488 1487 1486 1486 1485 1485 1485 1480 1477 1476 1470 1469 1471 1471 1471 1468 1464 1463 1466 1466 1466 1467 1467 1466 1467 1466 1467
1534 1532 1531 1529 1528 1526 1524 1523 1521 1519 1517 1516 1514 1514 1516 1516 1516 1516 1516 1515 1511 1507 1507 1507 1506 1506 1505 1504 1503 1501 1500 1499 1497 1496 1495 1494 1493 1493 1493 1493 1493 1493 1493 1493 1493 1492 1491 1488 1487 1489 1490 1491 1492 1492 1493 1492 1492 1491 1491 1491 1488 1485 1487 1487 1484 1484 1484 1483 1480 1478 1475 1467 1465 1468 1467 1466 1464 1461 1460 1461 1461 1462 1462 1462 1463 1464 1464 1464
1534 1532 1531 1529 1528 1526 1524 1523 1521 1519 1518 1517 1516 1516 1516 1516 1517 1517 1516 1516 1513 1509 1507 1507 1506 1506 1505 1504 1503 1501 1499 1499 1498 1496 1495 1494 1493 1493 1492 1492 1492 1492 1492 1492 1492 1491 1488 1487 1488 1489 1489 1489 1490 1490 1491 1491 1489 1488 1488 1488 1484 1484 1488 1487 1484 1484 1483 1480 1478 1478 1477 1466 1461 1464 1462 1460 1459 1457 1456 1455 1455 1456 1457 1458 1459 1460 1460 1460
1533 1532 1530 1529 1528 1526 1524 1523 1522 1520 1519 1518 1517 1517 1517 1517 1517 1516 1516 1516 1513 1509 1507 1506 1506 1505 1505 1504 1503 1501 1499 1499 1498 1496 1496 1495 1493 1492 1491 1492 1491 1490 1490 1491 1492 1489 1485 1485 1486 1487 1488 1488 1488 1487 1487 1488 1487 1485 1484 1484 1483 1484 1486 1486 1485 1485 1485 1481 1474 1477 1480 1465 1455 1460 1458 1455 1455 1454 1454 1452 1450 1450 1451 1453 1455 1455 1456 1456
1533 1531 1530 1528 1528 1526 1525 1523 1522 1521 1519 1519 1518 1518 1517 1517 1517 1517 1517 1516 1512 1509 1507 1506 1506 1505 1505 1504 1502 1500 1498 1498 1497 1497 1496 1495 1494 1493 1492 1491 1490 1490 1490 1490 1489 1486 1484 1484 1484 1485 1485 1485 1486 1484 1484 1486 1486 1483 1480 1480 1482 1483 1484 1483 1483 1485 1485 1480 1473 1476 1480 1468 1456 1456 1456 1454 1454 1452 1452 1451 1447 1446 1447 1448 1450 1451 1452 1452
1532 1530 1529 1528 1527 1526 1525 1524 1522 1521 1520 1519 1519 1518 1517 1517 1517 1517 1516 1515 1513 1510 1509 1507 1507 1506 1505 1504 1502 1500 1500 1498 1496 1496 1496 1495 1494 1493 1492 1491 1490 1490 1489 1490 1488 1483 1482 1484 1483 1483 1483 1482 1482 1481 1481 1484 1484 1480 1477 1479 1480 1480 1482 1481 1481 1482 1479 1476 1475 1474 1477 1474 1462 1455 1454 1455 1455 1450 1449 1448 1444 1443 1444 1444 1446 1447 1448 1449
1532 1530 1528 1527 1526 1526 1525 1524 1522 1521 1520 1519 1518 1517 1517 1517 1516 1517 1515 1515 1515 1511 1509 1509 1507 1506 1506 1504 1502 1501 1502 1500 1497 1496 1496 1495 1494 1493 1492 1490 1490 1490 1489 1492 1488 1480 1480 1482 1481 1482 1482 1480 1478 1478 1479 1481 1481 1477 1476 1477 1477 1478 1479 1478 1478 1479 1476 1477 1477 1470 1472 1475 1463 1452 1453 1454 1453 1449 1445 1443 1441 1440 1440 1441 1442 1443 1445 1446
1531 1529 1528 1526 1526 1526 1524 1524 1522 1521 1520 1519 1518 1517 1516 1516 1516 1517 1515 1515 1516 1511 1509 1509 1507 1507 1505 1503 1502 1501 1501 1500 1499 1497 1495 1495 1494 1493 1493 1491 1491 1491 1490 1491 1487 1479 1478 1479 1480 1481 1481 1478 1476 1477 1478 1479 1478 1475 1476 1476 1476 1477 1477 1476 1477 1476 1475 1480 1477 1466 1468 1472 1460 1450 1451 1452 1451 1447 1442 1439 1438 1438 1438 1438 1439 1440 1442 1442
1530 1529 1527 1526 1526 1525 1524 1523 1521 1521 1519 1518 1517 1516 1515 1516 1516 1515 1515 1516 1516 1512 1510 1509 1508 1508 1507 1504 1502 1501 1500 1500 1499 1497 1495 1494 1493 1493 1492 1491 1492 1491 1490 1491 1486 1480 1477 1478 1479 1479 1477 1474 1475 1476 1476 1477 1475 1474 1475 1474 1474 1474 1473 1474 1474 1473 1478 1480 1472 1462 1463 1469 1462 1450 1447 1448 1447 1443 1441 1438 1435 1435 1435 1435 1435 1436 1438 1439
1530 1528 1527 1526 1526 1525 1524 1523 1521 1520 1518 1517 1516 1515 1515 1516 1515 1516 1517 1518 1517 1513 1511 1510 1510 1509 1508 1509 1507 1501 1501 1501 1499 1498 1495 1493 1492 1492 1491 1490 1491 1490 1488 1487 1483 1479 1478 1476 1475 1474 1472 1472 1474 1474 1474 1474 1474 1475 1475 1473 1474 1472 1470 1472 1471 1475 1482 1475 1462 1457 1459 1466 1464 1450 1443 1443 1441 1439 1438 1436 1432 1432 1432 1431 1431 1432 1433 1435
1530 1529 1528 1527 1526 1525 1523 1522 1521 1519 1518 1516 1515 1515 1515 1514 1517 1522 1521 1519 1518 1515 1513 1513 1512 1511 1510 1512 1510 1506 1503 1501 1499 1498 1497 1495 1494 1493 1491 1491 1491 1488 1485 1484 1483 1479 1473 1470 1471 1471 1469 1470 1473 1473 1472 1472 1473 1474 1473 1474 1478 1474 1474 1478 1472 1471 1474 1463 1454 1454 1456 1459 1455 1445 1440 1438 1435 1433 1433 1431 1429 1429 1429 1428 1428 1428 1430 1431
1529 1528 1528 1527 1526 1524 1523 1522 1520 1519 1517 1516 1515 1515 1515 1514 1520 1527 1526 1522 1520 1518 1516 1515 1513 1513 1512 1510 1508 1507 1505 1502 1500 1499 1498 1499 1496 1492 1491 1492 1493 1490 1488 1489 1488 1481 1471 1467 1470 1471 1468 1468 1470 1470 1470 1469 1470 1471 1470 1473 1477 1474 1481 1486 1474 1467 1467 1458 1452 1453 1455 1456 1449 1438 1435 1433 1431 1430 1429 1428 1427 1426 1426 1425 1424 1425 1426 1426
1529 1528 1527 1527 1526 1524 1523 1521 1520 1519 1517 1515 1515 1514 1515 1518 1523 1526 1526 1525 1522 1519 1517 1517 1515 1513 1512 1510 1510 1509 1506 1503 1501 1499 1498 1498 1496 1492 1490 1491 1493 1492 1492 1492 1490 1486 1479 1470 1466 1467 1466 1466 1466 1465 1465 1465 1466 1467 1466 1469 1471 1467 1473 1476 1468 1465 1465 1457 1452 1453 1456 1453 1442 1432 1428 1427 1427 1427 1426 1424 1423 1422 1421 1420 1420 1420 1421 1421
1529 1528 1527 1526 1525 1524 1522 1521 1519 1518 1516 1515 1515 1516 1518 1523 1527 1528 1527 1525 1522 1520 1518 1517 1517 1514 1511 1511 1511 1511 1509 1506 1502 1500 1498 1497 1494 1492 1489 1489 1492 1493 1492 1492 1489 1488 1483 1472 1464 1465 1465 1465 1465 1462 1463 1466 1467 1464 1463 1468 1467 1460 1462 1466 1463 1462 1463 1460 1455 1452 1449 1441 1432 1427 1425 1425 1424 1423 1424 1421 1418 1418 1416 1416 1416 1415 1416 1417
1528 1528 1527 1526 1525 1524 1522 1521 1519 1518 1516 1514 1516 1521 1524 1525 1527 1528 1526 1523 1523 1523 1520 1516 1515 1515 1512 1510 1510 1510 1510 1508 1505 1502 1498 1495 1492 1491 1490 1489 1489 1490 1489 1491 1490 1487 1481 1470 1463 1465 1465 1463 1463 1461 1462 1466 1464 1462 1464 1464 1460 1457 1462 1468 1466 1465 1468 1468 1457 1448 1443 1436 1431 1427 1421 1421 1421 1418 1418 1416 1413 1413 1412 1412 1412 1411 1412 1412
1528 1527 1527 1526 1525 1523 1522 1520 1519 1518 1516 1514 1517 1524 1528 1526 1524 1525 1524 1523 1523 1524 1524 1521 1517 1516 1516 1514 1510 1509 1509 1508 1506 1504 1500 1495 1490 1487 1488 1487 1486 1487 1487 1490 1491 1488 1485 1472 1460 1462 1462 1459 1462 1463 1461 1462 1461 1462 1463 1459 1456 1459 1463 1465 1465 1466 1468 1465 1453 1444 1443 1439 1436 1429 1419 1418 1420 1417 1416 1415 1412 1410 1408 1409 1409 1409 1409 1408
1527 1527 1526 1525 1524 1523 1522 1520 1519 1518 1516 1517 1522 1527 1528 1526 1524 1524 1523 1523 1523 1523 1525 1524 1519 1518 1519 1517 1512 1509 1509 1507 1505 1505 1503 1498 1490 1485 1486 1485 1484 1485 1485 1488 1489 1488 1490 1478 1458 1456 1460 1459 1461 1463 1460 1459 1458 1459 1459 1456 1459 1463 1463 1462 1463 1463 1463 1462 1453 1444 1441 1437 1433 1426 1418 1418 1419 1418 1417 1415 1413 1410 1407 1407 1407 1406 1406 1405
1527 1526 1525 1525 1524 1523 1522 1520 1519 1518 1516 1521 1527 1528 1528 1527 1524 1524 1523 1523 1523 1523 1524 1523 1521 1520 1520 1518 1514 1510 1509 1508 1505 1505 1504 1499 1491 1485 1484 1483 1483 1484 1483 1485 1487 1486 1489 1484 1465 1456 1459 1460 1460 1462 1462 1458 1456 1458 1459 1458 1458 1459 1458 1457 1457 1455 1455 1458 1454 1447 1440 1431 1423 1418 1418 1420 1419 1417 1418 1416 1414 1412 1408 1406 1405 1405 1404 1402
1527 1526 1525 1526 1524 1523 1522 1521 1519 1519 1520 1525 1530 1529 1529 1527 1524 1523 1523 1522 1522 1522 1522 1522 1523 1522 1519 1517 1515 1511 1510 1508 1505 1505 1502 1497 1491 1484 1481 1482 1482 1483 1483 1483 1484 1484 1486 1486 1473 1460 1459 1461 1460 1460 1460 1457 1455 1456 1459 1460 1458 1456 1455 1454 1452 1449 1449 1453 1454 1453 1445 1426 1414 1415 1417 1419 1418 1417 1420 1418 1415 1412 1408 1406 1405 1404 1401 1399
1526 1526 1526 1525 1525 1523 1522 1521 1522 1524 1526 1529 1530 1529 1529 1527 1524 1523 1522 1521 1521 1520 1520 1521 1521 1521 1519 1516 1514 1512 1510 1506 1504 1503 1499 1495 1492 1485 1480 1481 1481 1482 1482 1481 1482 1483 1483 1482 1475 1464 1460 1460 1456 1454 1455 1455 1454 1452 1452 1454 1453 1453 1454 1456 1455 1450 1448 1449 1448 1451 1446 1422 1407 1413 1415 1416 1418 1417 1419 1420 1415 1411 1408 1406 1404 1401 1398 1395
1527 1527 1527 1526 1525 1523 1521 1523 1527 1529 1529 1529 1529 1529 1528 1527 1525 1523 1522 1521 1521 1520 1520 1520 1519 1519 1519 1517 1515 1514 1512 1506 1501 1501 1497 1492 1490 1486 1480 1480 1481 1480 1480 1479 1477 1477 1477 1478 1475 1464 1456 1454 1453 1451 1452 1452 1452 1450 1448 1448 1448 1449 1451 1453 1453 1449 1447 1446 1441 1446 1448 1422 1402 1408 1413 1413 1416 1417 1418 1417 1412 1408 1406 1404 1401 1398 1394 1392
1528 1528 1527 1526 1525 1523 1521 1524 1528 1530 1530 1529 1529 1529 1528 1527 1526 1524 1522 1521 1521 1521 1520 1519 1519 1518 1517 1516 1515 1515 1514 1507 1499 1496 1494 1490 1486 1483 1480 1480 1480 1479 1478 1477 1474 1474 1475 1476 1472 1460 1450 1450 1453 1453 1450 1448 1450 1450 1447 1447 1447 1447 1446 1445 1445 1444 1444 1442 1439 1446 1446 1420 1399 1403 1408 1409 1413 1415 1415 1412 1407 1404 1401 1399 1397 1395 1391 1389
1528 1528 1528 1527 1526 1523 1524 1528 1530 1530 1531 1530 1529 1528 1528 1527 1526 1524 1524 1522 1521 1521 1520 1519 1519 1518 1517 1517 1516 1515 1514 1510 1500 1492 1492 1490 1484 1480 1479 1479 1479 1477 1476 1474 1472 1472 1472 1472 1470 1463 1453 1450 1451 1452 1450 1448 1449 1449 1446 1447 1447 1445 1446 1446 1444 1445 1444 1438 1435 1441 1437 1413 1398 1401 1406 1408 1410 1409 1409 1406 1402 1400 1398 1396 1395 1393 1390 1387
1529 1528 1528 1528 1526 1524 1527 1532 1533 1533 1533 1532 1531 1529 1529 1527 1526 1525 1524 1522 1521 1521 1520 1519 1518 1518 1517 1517 1515 1513 1512 1511 1503 1494 1491 1489 1482 1478 1478 1478 1477 1475 1472 1469 1469 1472 1471 1468 1467 1464 1458 1452 1450 1450 1450 1447 1447 1447 1445 1446 1445 1443 1445 1445 1444 1445 1442 1434 1432 1434 1426 1407 1397 1401 1405 1406 1406 1404 1403 1403 1400 1399 1398 1396 1395 1393 1389 1385
1530 1530 1529 1529 1528 1527 1530 1533 1533 1533 1534 1534 1532 1531 1530 1529 1526 1524 1523 1522 1521 1520 1520 1519 1518 1518 1518 1516 1514 1511 1509 1508 1505 1497 1492 1489 1483 1478 1477 1476 1474 1471 1467 1465 1466 1469 1470 1466 1462 1461 1458 1453 1447 1447 1449 1449 1446 1444 1442 1442 1441 1440 1440 1441 1441 1439 1432 1430 1429 1422 1415 1408 1400 1399 1400 1400 1401 1401 1400 1400 1399 1398 1399 1397 1394 1391 1387 1383
1532 1534 1534 1533 1531 1530 1531 1533 1534 1534 1535 1535 1534 1532 1533 1531 1528 1524 1523 1522 1521 1520 1519 1518 1518 1519 1519 1518 1516 1512 1507 1504 1503 1497 1491 1487 1483 1478 1476 1474 1471 1467 1465 1464 1463 1466 1469 1462 1455 1455 1454 1449 1445 1446 1448 1448 1446 1441 1439 1439 1439 1439 1440 1440 1438 1431 1427 1432 1425 1409 1408 1412 1401 1394 1395 1396 1398 1400 1399 1399 1398 1395 1395 1395 1393 1390 1386 1380
1534 1536 1537 1537 1535 1534 1533 1533 1534 1535 1534 1534 1534 1533 1533 1532 1530 1528 1525 1522 1521 1520 1519 1518 1518 1519 1520 1520 1519 1515 1508 1503 1499 1493 1489 1486 1483 1479 1474 1469 1467 1465 1464 1465 1464 1467 1468 1459 1450 1451 1449 1445 1445 1444 1444 1444 1443 1440 1439 1438 1438 1439 1440 1438 1433 1428 1428 1430 1419 1404 1406 1410 1399 1392 1393 1394 1396 1398 1398 1398 1395 1391 1389 1388 1388 1388 1383 1377
1536 1537 1537 1537 1537 1536 1535 1535 1534 1534 1534 1533 1533 1533 1533 1532 1532 1531 1529 1526 1523 1520 1520 1520 1519 1518 1518 1517 1517 1515 1510 1506 1501 1493 1488 1486 1486 1485 1479 1470 1466 1464 1464 1467 1466 1466 1467 1459 1450 1450 1447 1441 1440 1440 1439 1441 1441 1439 1438 1437 1436 1436 1436 1435 1432 1428 1427 1425 1415 1409 1411 1407 1396 1394 1395 1394 1395 1396 1394 1393 1390 1387 1384 1381 1380 1380 1377 1373
1537 1538 1537 1537 1536 1536 1535 1535 1534 1534 1533 1532 1532 1532 1533 1533 1531 1530 1529 1528 1525 1521 1520 1520 1518 1517 1516 1515 1515 1513 1508 1506 1504 1496 1490 1489 1486 1485 1483 1476 1469 1466 1465 1466 1466 1466 1465 1457 1450 1450 1445 1436 1434 1435 1435 1436 1438 1439 1438 1436 1435 1435 1433 1432 1430 1428 1427 1423 1417 1417 1416 1405 1394 1393 1395 1394 1393 1393 1391 1389 1386 1383 1381 1378 1375 1373 1371 1369
1538 1538 1538 1537 1537 1536 1535 1535 1535 1534 1533 1533 1533 1533 1533 1533 1532 1530 1527 1524 1524 1522 1520 1520 1518 1516 1515 1514 1512 1508 1503 1501 1500 1492 1490 1491 1486 1482 1483 1477 1471 1471 1470 1467 1465 1465 1465 1458 1451 1450 1445 1435 1433 1434 1433 1433 1436 1439 1437 1435 1435 1434 1431 1428 1425 1424 1423 1420 1417 1417 1413 1401 1393 1394 1394 1391 1390 1390 1388 1386 1383 1380 1378 1376 1373 1371 1369 1366
1538 1538 1538 1538 1537 1536 1536 1535 1535 1534 1533 1533 1533 1533 1533 1532 1532 1531 1527 1522 1521 1521 1520 1520 1520 1517 1515 1512 1508 1504 1500 1498 1493 1485 1482 1485 1482 1478 1478 1475 1472 1475 1474 1469 1465 1463 1463 1459 1453 1451 1446 1435 1430 1433 1433 1431 1432 1434 1434 1434 1434 1432 1429 1425 1422 1419 1417 1416 1415 1412 1404 1396 1395 1395 1393 1389 1387 1386 1385 1383 1382 1379 1375 1373 1372 1369 1366 1364